This is the latest recevied weather packets stored in our database for station/object KE7KUS-14. If no packets are shown the sender has not sent any weather packets the latest 10 day(s).
| Time | Temp. | Humidity | Pressure | Rain* | Wind** | Luminosity | Snow |
|---|---|---|---|---|---|---|---|
| 1778056895 | 10° C | 48% | 1023.1 hPa | 0 mm | - | 0 W/m² | - |
| 1778053903 | 11.11° C | 42% | 1023.3 hPa | 0 mm | - | 0 W/m² | - |
| 1778053317 | 11.11° C | 41% | 1023.1 hPa | 0 mm | - | 0 W/m² | - |
| 1778049095 | 12.22° C | 35% | 1023 hPa | 0 mm | - | 0 W/m² | - |
| 1778046108 | 12.78° C | 31% | 1022.7 hPa | 0 mm | - | 0 W/m² | - |
| 1778043767 | 13.33° C | 32% | 1022.5 hPa | 0 mm | - | 0 W/m² | - |
| 1778041299 | 12.78° C | 35% | 1022.3 hPa | 0 mm | - | 0 W/m² | - |
| 1778039567 | 13.33° C | 41% | 1021.9 hPa | 0 mm | - | 0 W/m² | - |
| 1778038310 | 13.33° C | 42% | 1021.9 hPa | 0 mm | - | 0 W/m² | - |
| 1778029349 | 14.44° C | 39% | 1021 hPa | 0 mm | - | 39 W/m² | - |
| 1778028763 | 14.44° C | 38% | 1021.1 hPa | 0 mm | - | 51 W/m² | - |
| 1778025712 | 14.44° C | 44% | 1020.8 hPa | 0 mm | - | 126 W/m² | - |
| 1778021553 | 13.89° C | 48% | 1021.3 hPa | 0 mm | - | 187 W/m² | - |
| 1778017918 | 13.33° C | 51% | 1021.9 hPa | 0 mm | - | 218 W/m² | - |
| 1778014929 | 12.78° C | 57% | 1022.8 hPa | 0 mm | - | 289 W/m² | - |
| 1778014365 | 12.22° C | 58% | 1023 hPa | 0 mm | - | 248 W/m² | - |
| 1778012526 | 11.67° C | 61% | 1023.6 hPa | 0.25 mm | - | 175 W/m² | - |
| 1778008305 | 11.11° C | 60% | 1022.9 hPa | 0 mm | - | 106 W/m² | - |
| 1778006487 | 12.22° C | 48% | 1023.2 hPa | 0 mm | - | 143 W/m² | - |
| 1778002916 | 13.33° C | 45% | 1023.3 hPa | 0 mm | - | 132 W/m² | - |
| 1778001682 | 13.89° C | 44% | 1023.2 hPa | 0 mm | - | 234 W/m² | - |
| 1777996291 | 12.22° C | 39% | 1022.9 hPa | 0 mm | - | 130 W/m² | - |
| 1777995122 | 12.22° C | 41% | 1022.9 hPa | 0 mm | - | 90 W/m² | - |
| 1777994472 | 12.22° C | 42% | 1022.9 hPa | 0 mm | - | 72 W/m² | - |
| 1777993887 | 12.22° C | 42% | 1022.9 hPa | 0 mm | - | 95 W/m² | - |
* Rain latest hour (hover to see other rain measurements)
** Current wind speed in m/s (hover to see current wind gust speed)